AirNav   Air Wisconsin Up To $57,000 Bonus
 
 345 users online  

PAFR Bryant Army Airfield Heliport
Fort Richardson (Anchorage), Alaska, USA

GOING TO FORT RICHARDSON (ANCHORAGE)?


FAA INFORMATION EFFECTIVE 16 JUNE 2022

Location

FAA Identifier: FRN
Lat/Long: 61-15-57.2375N 149-39-11.9075W
61-15.953958N 149-39.198458W
61.2658993,-149.6533076
(estimated)
Elevation: 386.8 ft. / 117.9 m (surveyed)
Variation: 19E (2008)
From city: 5 miles NE of FORT RICHARDSON(ANCHORAGE), AK
Time zone: UTC -8 (UTC -9 during Standard Time)
Zip code: 99505

Airport Operations

Airport use: Private use. Permission required prior to landing
Control tower: yes
ARTCC: ANCHORAGE CENTER
FSS: KENAI FLIGHT SERVICE STATION [907-283-7211]
NOTAMs facility: PAFR (NOTAM-D service available)
Attendance: 0730-1730 MON-FRI EXCP HOLS
Pattern altitude: 1786.8 ft. MSL
Wind indicator: yes
Segmented circle: yes
Lights: SS-SR
Beacon: white-green (lighted land airport)
Operates sunset to sunrise.

Airport Communications

CTAF: 125.0
ATIS: 134.25
WX ASOS: 134.25
BRYANT GROUND: 121.25 239.25 [1500-0700Z++ MON-FRI EXCEPT FED HOLS.]
BRYANT TOWER: 125.0 254.35 [1500-0700Z++ MON-FRI EXCEPT FED HOLS.]
ANCHORAGE APPROACH: 118.6
ANCHORAGE DEPARTURE: 118.6
CLEARANCE DELIVERY: 119.1
CLASS C: 118.6
OPS: 40.8FM ;AASF OPS
PMSV METRO: 346.6
WX ASOS at MRI (6 nm SW): 124.25 (907-271-5277)
WX AWOS-3P at BCV (10 nm NE): 135.55 (907-688-0826)
WX ASOS at LHD (10 nm SW): PHONE 907-245-5432
WX ASOS at ANC (11 nm SW): PHONE 907-271-5278
WX AWOS-3P at IYS (19 nm N): 135.25 (907-373-3801)

Airport Services

Parking: hangars
Airframe service: NONE
Powerplant service: NONE
Bottled oxygen: NONE
Bulk oxygen: NONE

Runway Information

Runway 17/35

Dimensions: 4088 x 100 ft. / 1246 x 30 m
Surface: asphalt
Weight bearing capacity: 
PCN 66 /F/A/W/T
Single wheel: 38.0
Double wheel: 54.0
Runway edge lights: medium intensity
RUNWAY 17  RUNWAY 35
Latitude: 61-16.282833N61-15.625083N
Longitude: 149-39.061233W149-39.335683W
Elevation: 386.8 ft.365.3 ft.
Traffic pattern: leftleft
Runway heading: 172 magnetic, 191 true352 magnetic, 011 true
Displaced threshold: no670 ft.
Declared distances: TORA:4088 TODA:4088 ASDA:4088 LDA:4088TORA:4088 TODA:4088 ASDA:4088 LDA:3418
Markings: basic, in good conditionbasic, in good condition
Visual slope indicator: 4-light PAPI on left (3.50 degrees glide path)
DOES NOT PROVIDE OBST CLEARANCE BEYOND 2.0 NM FROM THLD, DUE TO MOUNTAINOUS TERRAIN EAST OF CNTLRN.
Runway end identifier lights: nono
Touchdown point: yes, no lightsyes, no lights
Obstructions: nonepline, marked, 2000 ft. from runway, 25:1 slope to clear

Airport Ownership and Management from official FAA records

Ownership: U.S. Army
Owner: US GOVT USA
HEADQUARTERS
FT. RICHARDSON, AK 99505
Phone 907-384-7868
Manager: BRYANT ARMY AIRFIELD
47430 WESTBROOK AVE
FT RICHARDSON, AK 99505
Phone 907-428-6561

Airport Operational Statistics

Aircraft based on the field: 70
Single engine airplanes: 15
Multi engine airplanes: 3
Military aircraft: 52
    

Additional Remarks

RECOMMEND VISUAL INSPECTION OF RY.
WILDLIFE OCCASIONALLY ON OR NEAR RY.
TFC PATTERN FOR RWY 17/35 WEST TFC ONLY.
VISUALLY INSPECT RWY WHEN TWR IS CLOSED.
BRYANT TWR - 907-428-6850 (DURING OPERATING HOURS).
RY 17/35 TFC PAT R/W 1100 FT MSL; FIXED WING 1900 FT MSL.
LGTD 180 FT ANTENNAS AT NATIONAL GUARD ARMORY E OF RY 17/35.
ARMY AVIATION SUPPORT FACILITY C907-428-6333.
96 HR PPR FOR SVCS.

Instrument Procedures

NOTE: All procedures below are presented as PDF files. If you need a reader for these files, you should download the free Adobe Reader.

NOT FOR NAVIGATION. Please procure official charts for flight.
FAA instrument procedures published for use from 16 June 2022 at 0901Z to 14 July 2022 at 0900z.

NOTE: Special Take-Off Minimums/Departure Procedures apply   download (265KB)

Other nearby airports with instrument procedures:

PAED - Elmendorf Air Force Base (5 nm W)
PAMR - Merrill Field Airport (6 nm SW)
PANC - Ted Stevens Anchorage International Airport (11 nm SW)
PAGQ - Big Lake Airport (17 nm N)
PAWS - Wasilla Airport (19 nm N)
 
Loc | Ops | Rwys | IFR | FBO | Links
Com | Nav | Svcs | Stats | Notes

Crowley Maritime Corporation
 
Area around PAFR (Bryant Army Airfield Heliport)
 
Road maps at: MapQuest Bing Google
 
Aerial photo
No photo
 
Sectional chart

 
Airport distance calculator
Flying to Bryant Army Airfield Heliport? Find the distance to fly.

From to PAFR

Sunrise and sunset
Times for 27-Jun-2022
 Local
(UTC-8)
 Zulu
(UTC)
Morning civil twilight++
Sunrise04:2312:23
Sunset23:4107:41
Evening civil twilight++

Current date and time
Zulu (UTC)  27-Jun-2022 09:05:11
Local (UTC-8)  27-Jun-2022 01:05:11
 
METAR
PAFR 270756Z AUTO 00000KT 10SM CLR 12/08 A3023 RMK AO2 SLP243 T01190080 VISNO RWY35 CHINO RWY35 $
PAED 
4nm W 
270756Z 00000KT 10SM FEW100 FEW200 13/10 A3026 RMK AO2A SLP243 CONTRAILS T01270102 $
PAMR 
6nm SW 
270853Z 23003KT 10SM FEW100 13/10 A3027 RMK AO2 SLP250 T01280100 401940111 50004
PABV 
10nm NE 
270756Z AUTO 16003KT 10SM CLR 15/11 A3028 RMK AO2 SLP258 T01500106
PANC 
12nm SW 
270853Z 00000KT 10SM FEW100 FEW200 11/08 A3027 RMK AO2 SLP251 T01060078 401780106 51003 $
TAF
PAED 
4nm W 
270200Z 2702/2808 25009KT 9999 FEW050 SCT200 QNH3024INS BECMG 2708/2709 VRB06KT 9999 FEW008 SCT045 BKN180 QNH3023INS BECMG 2711/2712 VRB06KT 9000 BR FEW008 BKN015 QNH3026INS BECMG 2720/2721 25009KT 9999 NSW FEW030 SCT180 QNH3028INS TX19/2801Z TN11/2713Z
PANC 
12nm SW 
262057Z 2621/2724 30007KT 6SM FU BKN010 FM262200 29007KT 6SM FU FEW010 FM271000 VRB04KT 3SM BR FU OVC006 FM272200 31005KT P6SM FEW006
NOTAMs
Click for the latest NOTAMs
NOTAMs are issued by the DoD/FAA and will open in a separate window not controlled by AirNav.

 

 
 

Would you like to see your business listed on this page?

 If your business provides an interesting product or service to pilots, flight crews, aircraft, or users of the Bryant Army Airfield Heliport, you should consider listing it here.  To start the listing process, click on the button below
 
Add a business
 

Other Pages about Bryant Army Airfield Heliport

Update a link
 
Copyright © AirNav, LLC. All rights reserved. Privacy Policy  Contact